DUNNNINGN Weather Reports


time (UTC)temp
C
wind
direction
speed
KPH
gust
KPH
rain 1hr
cm
rain 24hr
cm
rain mn
cm
humidity
%
barometer
mb
20260502213210 13 156 3.2 0.0 0.00 0.00 0.00 69 1016.8
20260502210209 13 182 6.4 0.0 0.00 0.00 0.00 67 1016.8
20260502203209 14 252 1.6 0.0 0.00 0.00 0.00 65 1017.0
20260502200210 16 341 4.8 0.0 0.00 0.00 0.00 60 1017.0
20260502193215 17 275 0.0 0.0 0.00 0.00 0.00 57 1016.8
20260502190217 18 275 0.0 0.0 0.00 0.00 0.00 53 1016.8
20260502183210 20 275 3.2 0.0 0.00 0.00 0.00 47 1016.6
20260502180211 21 269 3.2 0.0 0.00 0.00 0.00 43 1016.5
20260502170209 23 240 11.3 0.0 0.00 0.00 0.00 35 1016.7
20260502163210 24 240 11.3 0.0 0.00 0.00 0.00 31 1017.0
20260502160213 25 342 4.8 0.0 0.00 0.00 0.00 30 1017.4
20260502150210 24 157 11.3 0.0 0.00 0.00 0.00 30 1017.9
20260502130210 24 161 14.5 0.0 0.00 0.00 0.00 31 1019.4
20260502123210 24 120 12.9 0.0 0.00 0.00 0.00 30 1019.8
20260502120210 23 215 11.3 0.0 0.00 0.00 0.00 30 1020.3
20260502113210 23 192 9.7 0.0 0.00 0.00 0.00 30 1020.7
20260502110210 23 12 8.0 0.0 0.00 0.00 0.00 28 1021.1
20260502103210 23 86 11.3 0.0 0.00 0.00 0.00 34 1021.3
20260502100210 22 40 6.4 0.0 0.00 0.00 0.00 33 1021.8
20260502090210 20 88 4.8 0.0 0.00 0.00 0.00 44 1022.2
20260502070213 13 118 9.7 0.0 0.00 0.00 0.00 61 1022.7
20260502063212 10 140 8.0 0.0 0.00 0.00 0.00 68 1022.8
20260502060210 7 153 9.7 0.0 0.00 0.00 0.00 73 1023.0
20260502053210 5 182 8.0 0.0 0.00 0.00 0.00 77 1022.8
20260502050211 4 163 6.4 0.0 0.00 0.00 0.00 80 1022.9
20260502043211 3 159 6.4 0.0 0.00 0.00 0.00 80 1023.0
20260502040212 3 159 3.2 0.0 0.00 0.00 0.00 80 1023.1
20260502033211 3 184 3.2 0.0 0.00 0.00 0.00 80 1023.3
20260502030211 3 183 4.8 0.0 0.00 0.00 0.00 79 1023.3
20260502023214 3 207 1.6 0.0 0.00 0.00 0.00 77 1023.5
20260502020212 3 207 1.6 0.0 0.00 0.00 0.00 77 1023.6
20260502013211 4 218 0.0 0.0 0.00 0.00 0.00 76 1023.8
20260502010211 5 184 3.2 0.0 0.00 0.00 0.00 75 1023.8
20260502003209 5 184 0.0 0.0 0.00 0.00 0.00 73 1024.0
20260502000211 6 184 0.0 0.0 0.00 0.00 0.00 71 1024.0
20260501233210 6 184 0.0 0.0 0.00 0.00 0.00 68 1024.2
20260501230210 7 207 0.0 0.0 0.00 0.00 0.00 67 1024.0
20260501223209 8 207 0.0 0.0 0.00 0.00 0.00 65 1024.1